Location: Dumpton Point
(51.3500°N, 1.4433°E)
Time: 23:08:31
(UTC+00:00)

Cosmos 1346 Rocket - Pass Details

Date: 09 April 2020
Orbit: 529 x 550 km, 81.2° (Epoch: 04 June)

Event Time Altitude Azimuth Distance (km) Brightness Sun altitude
Rises 22:37:37 0° 350° (N) 2,728 7.5 -28.3°
Reaches altitude 10° 22:39:50 10° 356° (N) 1,832 6.3 -28.4°
Enters shadow 22:42:09 31° 13° (NNE) 983 4.5 -28.6°
